Waarnemingen

Advertentie
Mijn weer
F16-A, Nederland (6206): temperatuur & dauwpunt: 16.01.2018 21:00:00 - 22.01.2018 21:00:00 (CET)F16-A, Nederland (6206): windsnelheid & windstoten: 16.01.2018 21:00:00 - 22.01.2018 21:00:00 (CET)F16-A, Nederland (6206): windrichting: 16.01.2018 21:00:00 - 22.01.2018 21:00:00 (CET)F16-A, Nederland (6206): luchtdruk: 16.01.2018 21:00:00 - 22.01.2018 21:00:00 (CET)F16-A, Nederland (6206): zicht: 16.01.2018 21:00:00 - 22.01.2018 21:00:00 (CET)
Datum & Tijd tt [°C] td [°C] ff [km/u] ff [kn] fx [km/u] fx [kn] dd ppp [hPa] vv [km]
22.01.2018 21:00:00 7,0 4,9 27 15 - - W 1011,6 11
22.01.2018 20:00:00 7,0 4,7 29 16 36 19 W 1010,9 12
22.01.2018 19:00:00 7,0 4,8 29 16 - - W 1009,8 11
22.01.2018 18:00:00 7,0 4,8 31 17 36 19 W 1009,0 10
22.01.2018 17:00:00 7,1 4,7 29 16 36 19 W 1008,1 10
22.01.2018 16:00:00 6,9 4,8 25 14 - - W 1007,2 10
22.01.2018 15:00:00 7,1 4,8 25 14 32 18 W 1006,1 11
22.01.2018 14:00:00 7,5 4,7 25 14 29 16 W 1005,4 11
22.01.2018 13:00:00 7,0 4,7 25 14 - - W 1005,1 12
22.01.2018 12:00:00 6,9 4,6 25 14 29 16 W 1004,9 12
22.01.2018 11:00:00 6,8 4,8 22 12 29 16 W 1004,3 12
22.01.2018 10:00:00 6,7 4,8 22 12 - - W 1003,6 13
22.01.2018 09:00:00 6,6 5,0 24 13 25 14 W 1003,0 10
22.01.2018 08:00:00 6,3 5,0 18 10 36 19 W 1002,5 13
22.01.2018 07:00:00 6,2 4,9 32 18 - - WNW 1002,0 14
22.01.2018 06:00:00 6,0 5,4 22 12 36 19 W 1001,3 6
22.01.2018 05:00:00 5,8 5,5 22 12 43 23 ZZW 1001,2 11
22.01.2018 04:00:00 4,8 4,3 40 21 - - Z 1001,8 14
22.01.2018 03:00:00 4,0 3,6 43 23 61 33 Z 1002,7 12
22.01.2018 02:00:00 3,5 2,6 67 36 65 35 Z 1003,2 10
22.01.2018 01:00:00 3,5 2,9 50 27 - - ZZO 1004,4 8
22.01.2018 00:00:00 3,4 1,6 54 29 65 35 ZZO 1005,1 9
21.01.2018 23:00:00 4,1 1,0 50 27 61 33 Z 1006,3 20
21.01.2018 22:00:00 4,2 0,4 43 23 - - ZZO 1007,7 27
21.01.2018 21:00:00 5,6 1,8 43 23 54 29 ZZO 1008,6 23
21.01.2018 20:00:00 5,3 1,7 29 16 40 21 ZZO 1009,8 28
21.01.2018 19:00:00 5,3 1,0 25 14 - - Z 1011,3 31
21.01.2018 18:00:00 5,2 1,4 25 14 29 16 Z 1011,8 34
21.01.2018 17:00:00 5,2 1,7 22 12 25 14 Z 1012,2 30
21.01.2018 16:00:00 5,2 0,3 21 11 - - Z 1012,4 10
21.01.2018 15:00:00 5,2 0,2 14 8 18 10 Z 1013,2 35
21.01.2018 14:00:00 5,2 0,5 7 4 11 6 ZZW 1013,7 42
21.01.2018 13:00:00 5,6 0,6 7 4 - - WZW 1013,8 30
21.01.2018 12:00:00 5,4 0,9 5 3 7 4 W 1013,7 10
21.01.2018 11:00:00 5,7 1,5 13 7 14 8 WNW 1013,5 10
21.01.2018 10:00:00 5,4 1,2 11 6 - - WNW 1013,1 34
21.01.2018 09:00:00 5,2 0,6 18 10 22 12 WNW 1012,4 39
21.01.2018 08:00:00 5,3 0,8 18 10 22 12 NW 1011,7 16
21.01.2018 07:00:00 5,4 1,2 22 12 - - WNW 1010,9 43
21.01.2018 06:00:00 5,3 0,3 22 12 29 16 NW 1010,2 48
21.01.2018 05:00:00 5,3 0,8 28 15 29 16 NW 1009,4 10
21.01.2018 04:00:00 4,7 1,9 22 12 - - NNW 1008,6 27
21.01.2018 03:00:00 5,1 1,2 32 18 47 25 NW 1007,6 40
21.01.2018 02:00:00 5,0 1,2 32 18 43 23 NW 1006,2 37
21.01.2018 01:00:00 4,6 1,0 36 19 - - NW 1005,1 37
21.01.2018 00:00:00 4,0 1,3 36 19 54 29 NW 1003,8 32
20.01.2018 23:00:00 4,2 1,5 36 19 43 23 NNW 1002,7 36
20.01.2018 22:00:00 4,5 0,5 40 21 - - WNW 1001,9 30
20.01.2018 21:00:00 4,8 1,0 37 20 43 23 WNW 1001,0 10
20.01.2018 20:00:00 4,8 0,7 32 18 43 23 WNW 1000,2 28
20.01.2018 19:00:00 4,9 1,2 25 14 - - WNW 999,7 22
20.01.2018 18:00:00 5,3 1,1 29 16 36 19 WNW 999,0 20
20.01.2018 17:00:00 5,4 1,7 25 14 32 18 WNW 998,7 19
20.01.2018 16:00:00 4,9 1,8 18 10 - - WZW 998,4 19
20.01.2018 15:00:00 5,0 1,4 18 10 25 14 ZW 998,2 18
20.01.2018 14:00:00 4,8 1,3 22 12 29 16 ZZW 998,6 20
20.01.2018 13:00:00 4,9 1,1 25 14 - - ZZW 999,2 21
20.01.2018 12:00:00 4,9 1,1 29 16 32 18 ZW 1000,0 10
20.01.2018 11:00:00 4,4 0,9 25 14 32 18 Z 1000,6 23
20.01.2018 10:00:00 4,8 0,0 25 14 - - ZW 1000,6 23
20.01.2018 09:00:00 4,9 0,7 25 14 29 16 ZW 1000,6 21
20.01.2018 08:00:00 5,0 -1,3 18 10 29 16 ZW 1000,9 28
20.01.2018 07:00:00 5,0 -1,0 22 12 - - WZW 1001,2 26
20.01.2018 06:00:00 5,0 -1,1 35 19 32 18 W 1001,0 10
20.01.2018 05:00:00 4,8 0,3 25 14 43 23 W 1000,8 20
20.01.2018 04:00:00 5,0 1,2 39 21 - - WZW 1001,4 10
20.01.2018 03:00:00 4,1 1,5 18 10 43 23 WZW 1002,3 20
20.01.2018 02:00:00 5,4 0,9 29 16 40 21 WZW 1002,3 21
20.01.2018 01:00:00 5,1 -1,0 32 18 - - WZW 1002,6 22
20.01.2018 00:00:00 5,3 0,4 34 18 36 19 WZW 1002,7 10
19.01.2018 23:00:00 5,4 -0,1 29 16 32 18 WZW 1002,9 24
19.01.2018 22:00:00 4,1 0,7 32 18 - - WZW 1003,0 12
19.01.2018 21:00:00 3,5 1,3 18 10 43 23 WZW 1003,3 32
19.01.2018 20:00:00 4,0 -0,1 37 20 43 23 WZW 1003,0 10
19.01.2018 19:00:00 5,0 0,6 25 14 - - WZW 1003,1 26
19.01.2018 18:00:00 5,2 0,6 34 18 36 19 WZW 1003,1 10
19.01.2018 17:00:00 4,0 0,5 29 16 43 23 WZW 1003,5 15
19.01.2018 16:00:00 4,6 0,7 29 16 - - ZW 1003,1 27
19.01.2018 15:00:00 5,3 0,6 32 18 40 21 WZW 1003,1 22
19.01.2018 14:00:00 4,7 1,1 22 12 40 21 W 1003,1 24
19.01.2018 13:00:00 5,3 1,6 29 16 - - WZW 1003,2 23
19.01.2018 12:00:00 5,7 0,8 25 14 29 16 W 1003,4 21
19.01.2018 11:00:00 5,5 0,5 29 16 29 16 W 1003,2 10
19.01.2018 10:00:00 5,3 1,4 35 19 - - WNW 1002,8 10
19.01.2018 09:00:00 5,5 0,3 29 16 32 18 W 1002,2 10
19.01.2018 08:00:00 5,1 0,9 31 17 40 21 WNW 1001,8 10
19.01.2018 07:00:00 5,2 1,5 29 16 - - WNW 1001,3 10
19.01.2018 06:00:00 4,8 1,1 41 22 50 27 WNW 1001,0 10
19.01.2018 05:00:00 4,4 1,5 42 23 43 23 WNW 1000,6 10
19.01.2018 04:00:00 4,6 1,1 41 22 - - WNW 1000,4 10
19.01.2018 03:00:00 5,5 1,8 18 10 22 12 W 1000,2 10
19.01.2018 02:00:00 5,7 2,2 21 11 25 14 W 999,9 10
19.01.2018 01:00:00 5,5 1,8 24 13 - - WNW 999,7 10
19.01.2018 00:00:00 5,4 1,6 28 15 32 18 WNW 999,3 10
18.01.2018 23:00:00 5,5 0,8 22 12 29 16 W 999,2 10
18.01.2018 22:00:00 5,7 1,9 26 14 - - W 998,8 10
18.01.2018 21:00:00 5,4 2,2 26 14 29 16 W 998,6 10
18.01.2018 20:00:00 5,6 1,5 26 14 29 16 W 998,2 10
18.01.2018 19:00:00 4,5 0,7 29 16 - - NW 998,0 10
18.01.2018 18:00:00 5,6 1,9 39 21 43 23 WNW 997,4 10
18.01.2018 17:00:00 5,7 1,0 42 23 47 25 WNW 996,7 10
18.01.2018 16:00:00 5,0 1,7 28 15 - - W 996,0 10
18.01.2018 15:00:00 5,1 1,2 46 25 54 29 WNW 995,0 6
18.01.2018 14:00:00 5,8 2,2 35 19 58 31 W 994,1 10
18.01.2018 13:00:00 4,9 1,0 50 27 - - WNW 992,6 10
18.01.2018 12:00:00 4,2 2,1 42 23 54 29 NW 991,7 10
18.01.2018 11:00:00 3,9 2,3 59 32 61 33 NNW 989,1 10
18.01.2018 10:00:00 3,7 2,6 65 35 - - N 985,0 6
18.01.2018 09:00:00 2,0 1,4 67 36 68 37 NO 979,9 4,1
18.01.2018 08:00:00 2,0 1,3 63 34 68 37 O 977,7 2,9
18.01.2018 07:00:00 0,9 0,9 42 23 - - OZO 979,4 -
18.01.2018 06:00:00 0,9 0,4 44 24 47 25 ZO 982,1 -
18.01.2018 05:00:00 3,3 1,1 37 20 43 23 ZZO 986,2 10
18.01.2018 04:00:00 4,3 1,9 37 20 - - ZZW 990,0 10
18.01.2018 03:00:00 5,3 1,5 41 22 40 21 ZZW 992,7 10
18.01.2018 02:00:00 5,6 2,0 44 24 43 23 ZW 994,6 10
18.01.2018 01:00:00 5,9 1,9 42 23 - - WZW 996,0 10
18.01.2018 00:00:00 5,9 2,2 42 23 54 29 WZW 997,3 10
17.01.2018 23:00:00 5,6 1,5 48 26 50 27 WZW 997,8 10
17.01.2018 22:00:00 6,2 1,4 44 24 - - W 998,1 10
17.01.2018 21:00:00 6,2 1,0 44 24 54 29 W 998,5 10
17.01.2018 20:00:00 6,2 1,5 46 25 50 27 W 998,2 10
17.01.2018 19:00:00 6,3 1,8 50 27 - - W 998,3 10
17.01.2018 18:00:00 6,2 1,5 54 29 58 31 W 997,9 10
17.01.2018 17:00:00 6,2 1,1 59 32 58 31 W 997,5 10
17.01.2018 16:00:00 6,3 0,6 61 33 - - WNW 996,5 10
17.01.2018 15:00:00 6,0 -0,1 59 32 72 39 WNW 996,0 10
17.01.2018 14:00:00 5,8 -0,2 52 28 76 41 WNW 994,9 10
17.01.2018 13:00:00 3,4 1,4 46 25 - - WNW 994,4 7
17.01.2018 12:00:00 6,1 0,8 54 29 58 31 WNW 993,2 10
17.01.2018 11:00:00 5,6 -1,5 57 31 65 35 WNW 992,1 10
17.01.2018 10:00:00 5,3 -1,4 50 27 - - WNW 991,2 10
17.01.2018 09:00:00 5,0 -0,9 39 21 47 25 W 990,1 10
17.01.2018 08:00:00 4,5 -1,0 46 25 58 31 W 989,7 10
17.01.2018 07:00:00 4,8 -1,3 46 25 - - W 988,6 10
17.01.2018 06:00:00 3,9 0,5 55 30 65 35 WNW 988,2 10
17.01.2018 05:00:00 4,8 -0,4 46 25 47 25 W 987,1 10
17.01.2018 04:00:00 5,0 -1,2 41 22 - - W 986,5 10
17.01.2018 03:00:00 5,0 -1,2 46 25 47 25 W 986,2 10
17.01.2018 02:00:00 5,0 -1,2 44 24 47 25 W 985,5 10
17.01.2018 01:00:00 4,6 -0,1 42 23 - - W 985,4 10
17.01.2018 00:00:00 4,9 0,8 42 23 50 27 W 985,5 10
16.01.2018 23:00:00 5,0 0,4 41 22 43 23 W 985,4 10
16.01.2018 22:00:00 5,1 0,1 48 26 - - WZW 985,6 10
16.01.2018 21:00:00 5,3 0,7 48 26 50 27 W 986,1 10

tt = temperatuur
td = dauwpunt
ff = windsnelheid
fx = windstoten
dd = windrichting
ppp = luchtdruk
vv = zicht

Weerstations in de omgeving